Powrót do katalogu

OPS 6679

VELA 8

LostMilitariaHEO
NORAD 2766·PAYLOAD·🇺🇸 United States

Wystrzelony Apr 28, 1967 z Cape Canaveral Space Force Station

Loading…

Następne Przeloty (najbliższe 24 godziny)

TLE

NieaktualneSource: Space-Track

Epoka: May 28, 2026, 12:32 UTC

1 02766U 67040B   26148.52225106 -.00001179  00000-0  00000-0 0  9991
2 02766  36.4866   5.2796 4640335 121.7860 358.7111  0.21294873  5451

Śledź OPS 6679 w czasie rzeczywistym z AllMySat

Download on the App Store